Location: Gand�
(15.0971°N, 12.6564°W)
Time: 15:20:07
(UTC+00:00)

Cosmos 2263 Rocket - Pass Details

Date: 07 August 2020
Orbit: 824 x 848 km, 71.0° (Epoch: 20 September)

Event Time Altitude Azimuth Distance (km) Brightness Sun altitude
Exits shadow 04:05:53 21° 352° (N) 1,753 4.0 -33.7°
Drops below altitude 10° 04:07:49 10° 1° (N) 2,421 4.9 -33.3°
Sets 04:10:20 0° 7° (N) 3,352 5.8 -32.8°
